TimeMST,TemperatureF,Dew PointF,Humidity,Sea Level PressureIn,VisibilityMPH,Wind Direction,Wind SpeedMPH,Gust SpeedMPH,PrecipitationIn,Events,Conditions,WindDirDegrees,DateUTC
12:57 AM,87.1,55.9,35,29.70,7.0,Calm,Calm,-,N/A,,Clear,0,2013-09-13 07:57:00
1:57 AM,82.9,60.1,46,29.70,7.0,SW,3.5,-,N/A,,Clear,230,2013-09-13 08:57:00
2:57 AM,82.0,59.0,45,29.69,7.0,Calm,Calm,-,N/A,,Clear,0,2013-09-13 09:57:00
3:57 AM,82.9,55.9,39,29.68,7.0,Calm,Calm,-,N/A,,Clear,0,2013-09-13 10:57:00
4:57 AM,81.0,60.1,49,29.68,7.0,SSE,3.5,-,N/A,,Clear,150,2013-09-13 11:57:00
5:57 AM,80.1,59.0,48,29.68,10.0,Calm,Calm,-,N/A,,Clear,0,2013-09-13 12:57:00
6:57 AM,80.1,62.1,54,29.69,10.0,Calm,Calm,-,N/A,,Clear,0,2013-09-13 13:57:00
7:57 AM,84.9,59.0,41,29.69,9.0,Calm,Calm,-,N/A,,Clear,0,2013-09-13 14:57:00
8:57 AM,91.0,53.1,27,29.69,10.0,North,6.9,-,N/A,,Clear,10,2013-09-13 15:57:00
9:57 AM,93.9,53.1,25,29.69,10.0,NE,4.6,-,N/A,,Clear,50,2013-09-13 16:57:00
10:57 AM,99.0,53.1,21,29.68,10.0,North,10.4,-,N/A,,Clear,10,2013-09-13 17:57:00
11:57 AM,102.0,48.9,17,29.65,10.0,North,11.5,16.1,N/A,,Clear,350,2013-09-13 18:57:00
12:57 PM,100.9,48.9,17,29.63,10.0,Variable,4.6,-,N/A,,Clear,0,2013-09-13 19:57:00
1:57 PM,105.1,48.0,15,29.60,10.0,NNE,5.8,-,N/A,,Clear,20,2013-09-13 20:57:00
2:57 PM,102.9,46.0,15,29.58,10.0,NE,3.5,-,N/A,,Partly Cloudy,50,2013-09-13 21:57:00
3:57 PM,105.1,46.9,14,29.56,10.0,Variable,6.9,-,N/A,,Partly Cloudy,0,2013-09-13 22:57:00
4:57 PM,104.0,46.9,15,29.55,10.0,NW,9.2,-,N/A,,Clear,320,2013-09-13 23:57:00
5:57 PM,102.9,46.0,15,29.54,10.0,NW,6.9,-,N/A,,Clear,310,2013-09-14 00:57:00
6:57 PM,100.0,46.9,16,29.54,10.0,NW,5.8,-,N/A,,Clear,320,2013-09-14 01:57:00
7:57 PM,98.1,46.9,18,29.56,10.0,North,5.8,-,N/A,,Clear,350,2013-09-14 02:57:00
8:57 PM,96.1,46.9,19,29.57,10.0,NNW,5.8,-,N/A,,Clear,340,2013-09-14 03:57:00
9:57 PM,91.9,53.1,27,29.58,10.0,Calm,Calm,-,N/A,,Clear,0,2013-09-14 04:57:00
10:57 PM,89.1,54.0,30,29.58,10.0,Calm,Calm,-,N/A,,Clear,0,2013-09-14 05:57:00
11:57 PM,87.1,57.9,37,29.58,10.0,Calm,Calm,-,N/A,,Clear,0,2013-09-14 06:57:00